| time (UTC) | temp C | wind direction | speed KPH | gust KPH | rain 1hr cm | rain 24hr cm | rain mn cm | humidity % | barometer mb |
| 20260508114504 | 17 | 327 | 4.8 | 9.7 | 0.00 | 0.00 | 0.00 | 57 | 1017.9 |
| 20260508114005 | 16 | 121 | 3.2 | 12.9 | 0.00 | 0.00 | 0.00 | 60 | 1017.9 |
| 20260508113504 | 16 | 127 | 4.8 | 16.1 | 0.00 | 0.00 | 0.00 | 59 | 1017.9 |
| 20260508113005 | 16 | 94 | 3.2 | 11.3 | 0.00 | 0.00 | 0.00 | 61 | 1017.9 |
| 20260508112505 | 16 | 93 | 4.8 | 12.9 | 0.00 | 0.00 | 0.00 | 60 | 1018.0 |
| 20260508112004 | 16 | 92 | 4.8 | 14.5 | 0.00 | 0.00 | 0.00 | 61 | 1017.9 |
| 20260508111505 | 16 | 117 | 3.2 | 11.3 | 0.00 | 0.00 | 0.00 | 62 | 1018.0 |
| 20260508111005 | 16 | 155 | 4.8 | 12.9 | 0.00 | 0.00 | 0.00 | 62 | 1018.1 |
| 20260508110005 | 16 | 106 | 3.2 | 8.0 | 0.00 | 0.00 | 0.00 | 63 | 1018.2 |
| 20260508105505 | 15 | 105 | 3.2 | 11.3 | 0.00 | 0.00 | 0.00 | 63 | 1018.2 |
| 20260508095005 | 14 | 96 | 4.8 | 14.5 | 0.00 | 0.00 | 0.00 | 69 | 1018.4 |
| 20260508094504 | 13 | 96 | 3.2 | 14.5 | 0.00 | 0.00 | 0.00 | 69 | 1018.4 |
| 20260508090004 | 13 | 98 | 6.4 | 12.9 | 0.00 | 0.00 | 0.00 | 73 | 1018.4 |
| 20260508085504 | 12 | 53 | 3.2 | 14.5 | 0.00 | 0.00 | 0.00 | 74 | 1018.4 |
| 20260508085005 | 12 | 116 | 4.8 | 12.9 | 0.00 | 0.00 | 0.00 | 75 | 1018.4 |
| 20260508084504 | 12 | 133 | 3.2 | 11.3 | 0.00 | 0.00 | 0.00 | 77 | 1018.4 |
| 20260508084009 | 12 | 89 | 6.4 | 12.9 | 0.00 | 0.00 | 0.00 | 77 | 1018.4 |
| 20260508083508 | 12 | 111 | 4.8 | 12.9 | 0.00 | 0.00 | 0.00 | 78 | 1018.4 |
| 20260508083008 | 12 | 115 | 9.7 | 16.1 | 0.00 | 0.00 | 0.00 | 78 | 1018.4 |
| 20260508082508 | 11 | 117 | 8.0 | 14.5 | 0.00 | 0.00 | 0.00 | 79 | 1018.4 |
| 20260508082009 | 11 | 100 | 9.7 | 16.1 | 0.00 | 0.00 | 0.00 | 79 | 1018.4 |
| 20260508081508 | 11 | 103 | 8.0 | 16.1 | 0.00 | 0.00 | 0.00 | 79 | 1018.4 |
| 20260508081009 | 11 | 109 | 8.0 | 16.1 | 0.00 | 0.00 | 0.00 | 80 | 1018.4 |
| 20260508074508 | 11 | 100 | 6.4 | 12.9 | 0.00 | 0.00 | 0.00 | 81 | 1018.4 |
| 20260508074009 | 11 | 99 | 4.8 | 14.5 | 0.00 | 0.00 | 0.00 | 82 | 1018.4 |
| 20260508073508 | 11 | 98 | 8.0 | 14.5 | 0.00 | 0.00 | 0.00 | 82 | 1018.4 |
| 20260508073009 | 11 | 98 | 6.4 | 11.3 | 0.00 | 0.00 | 0.00 | 82 | 1018.4 |
| 20260508064509 | 10 | 96 | 6.4 | 14.5 | 0.00 | 0.00 | 0.00 | 84 | 1018.0 |
| 20260508061508 | 10 | 95 | 4.8 | 9.7 | 0.00 | 0.00 | 0.00 | 84 | 1017.9 |
| 20260508061008 | 10 | 96 | 6.4 | 14.5 | 0.00 | 0.00 | 0.00 | 84 | 1017.9 |
| 20260508060008 | 10 | 95 | 4.8 | 11.3 | 0.00 | 0.00 | 0.00 | 84 | 1017.9 |
| 20260508055509 | 10 | 95 | 3.2 | 8.0 | 0.00 | 0.00 | 0.00 | 85 | 1017.9 |
| 20260508055008 | 10 | 95 | 4.8 | 8.0 | 0.00 | 0.00 | 0.00 | 85 | 1017.9 |
| 20260508052008 | 10 | 94 | 4.8 | 9.7 | 0.00 | 0.00 | 0.00 | 85 | 1017.7 |
| 20260508051508 | 10 | 94 | 4.8 | 11.3 | 0.00 | 0.00 | 0.00 | 85 | 1017.6 |
| 20260508051009 | 10 | 94 | 6.4 | 11.3 | 0.00 | 0.00 | 0.00 | 85 | 1017.5 |
| 20260508050008 | 10 | 9 | 3.2 | 8.0 | 0.00 | 0.00 | 0.00 | 85 | 1017.5 |
| 20260508045507 | 10 | 8 | 4.8 | 8.0 | 0.00 | 0.00 | 0.00 | 85 | 1017.4 |
| 20260508045008 | 10 | 3 | 4.8 | 4.8 | 0.00 | 0.00 | 0.00 | 85 | 1017.3 |
| 20260508044508 | 10 | 4 | 4.8 | 8.0 | 0.00 | 0.00 | 0.00 | 85 | 1017.3 |
| 20260508044007 | 10 | 0 | 3.2 | 4.8 | 0.00 | 0.00 | 0.00 | 85 | 1017.3 |
| 20260508043507 | 10 | 0 | 4.8 | 8.0 | 0.00 | 0.00 | 0.00 | 85 | 1017.3 |
| 20260508043008 | 10 | 355 | 3.2 | 8.0 | 0.00 | 0.00 | 0.00 | 85 | 1017.3 |
| 20260508042008 | 10 | 355 | 4.8 | 8.0 | 0.00 | 0.00 | 0.00 | 85 | 1017.3 |
| 20260508035507 | 10 | 90 | 9.7 | 14.5 | 0.00 | 0.00 | 0.00 | 84 | 1017.3 |
| 20260508035008 | 10 | 83 | 4.8 | 12.9 | 0.00 | 0.00 | 0.00 | 83 | 1017.3 |
| 20260508033508 | 10 | 80 | 4.8 | 11.3 | 0.00 | 0.00 | 0.00 | 83 | 1017.3 |
| 20260508031508 | 10 | 80 | 3.2 | 9.7 | 0.00 | 0.00 | 0.00 | 83 | 1017.2 |
| 20260508031007 | 10 | 80 | 4.8 | 12.9 | 0.00 | 0.00 | 0.00 | 82 | 1017.2 |
| 20260508030007 | 10 | 76 | 3.2 | 8.0 | 0.00 | 0.00 | 0.00 | 82 | 1017.1 |
| 20260508022507 | 11 | 71 | 3.2 | 4.8 | 0.00 | 0.00 | 0.00 | 82 | 1017.1 |
| 20260508022007 | 11 | 71 | 3.2 | 8.0 | 0.00 | 0.00 | 0.00 | 82 | 1017.1 |
| 20260508021507 | 11 | 70 | 4.8 | 11.3 | 0.00 | 0.00 | 0.00 | 82 | 1017.1 |
| 20260508021007 | 11 | 69 | 3.2 | 8.0 | 0.00 | 0.00 | 0.00 | 82 | 1017.1 |
| 20260508020007 | 11 | 69 | 0.0 | 4.8 | 0.00 | 0.00 | 0.00 | 81 | 1017.1 |
| 20260508015507 | 11 | 69 | 1.6 | 4.8 | 0.00 | 0.00 | 0.00 | 81 | 1017.0 |
| 20260508015007 | 11 | 69 | 1.6 | 8.0 | 0.00 | 0.00 | 0.00 | 81 | 1016.9 |
| 20260508014507 | 11 | 69 | 4.8 | 8.0 | 0.00 | 0.00 | 0.00 | 81 | 1016.9 |
| 20260508013508 | 11 | 68 | 3.2 | 8.0 | 0.00 | 0.00 | 0.00 | 81 | 1017.0 |
| 20260508011507 | 11 | 67 | 3.2 | 4.8 | 0.00 | 0.00 | 0.00 | 80 | 1017.0 |
| 20260508011007 | 11 | 67 | 1.6 | 4.8 | 0.00 | 0.00 | 0.00 | 79 | 1017.1 |
| 20260508005007 | 11 | 67 | 4.8 | 8.0 | 0.00 | 0.00 | 0.00 | 79 | 1017.1 |
| 20260508004507 | 11 | 67 | 3.2 | 4.8 | 0.00 | 0.00 | 0.00 | 78 | 1017.2 |
| 20260508003007 | 11 | 62 | 4.8 | 8.0 | 0.00 | 0.00 | 0.00 | 78 | 1017.2 |
| 20260508002507 | 11 | 59 | 3.2 | 4.8 | 0.00 | 0.00 | 0.00 | 78 | 1017.2 |
| 20260508002007 | 11 | 59 | 0.0 | 4.8 | 0.00 | 0.00 | 0.00 | 78 | 1017.2 |
| 20260507233507 | 11 | 59 | 0.0 | 1.6 | 0.00 | 0.00 | 0.00 | 78 | 1017.3 |
| 20260507233007 | 11 | 59 | 0.0 | 3.2 | 0.00 | 0.00 | 0.00 | 78 | 1017.3 |
| 20260507231007 | 11 | 59 | 0.0 | 1.6 | 0.00 | 0.00 | 0.00 | 77 | 1017.3 |
| 20260507230006 | 11 | 59 | 0.0 | 1.6 | 0.00 | 0.00 | 0.00 | 77 | 1017.3 |
| 20260507225506 | 11 | 59 | 0.0 | 3.2 | 0.00 | 0.00 | 0.00 | 77 | 1017.3 |
| 20260507225007 | 11 | 59 | 0.0 | 3.2 | 0.00 | 0.00 | 0.00 | 76 | 1017.3 |
| 20260507224507 | 11 | 59 | 1.6 | 3.2 | 0.00 | 0.00 | 0.00 | 76 | 1017.3 |
| 20260507224007 | 11 | 59 | 0.0 | 1.6 | 0.00 | 0.00 | 0.00 | 76 | 1017.3 |
| 20260507223506 | 11 | 59 | 0.0 | 1.6 | 0.00 | 0.00 | 0.00 | 76 | 1017.3 |
| 20260507223008 | 11 | 59 | 0.0 | 1.6 | 0.00 | 0.00 | 0.00 | 76 | 1017.3 |
| 20260507222507 | 11 | 59 | 0.0 | 0.0 | 0.00 | 0.00 | 0.00 | 76 | 1017.3 |
| 20260507222006 | 11 | 59 | 0.0 | 1.6 | 0.00 | 0.00 | 0.00 | 76 | 1017.3 |
| 20260507221506 | 11 | 59 | 0.0 | 1.6 | 0.00 | 0.00 | 0.00 | 75 | 1017.3 |
| 20260507215506 | 12 | 59 | 0.0 | 0.0 | 0.00 | 0.00 | 0.00 | 74 | 1017.3 |
| 20260507215006 | 12 | 59 | 0.0 | 3.2 | 0.00 | 0.00 | 0.00 | 74 | 1017.3 |
| 20260507211506 | 12 | 59 | 1.6 | 4.8 | 0.00 | 0.00 | 0.00 | 71 | 1017.3 |
| 20260507211007 | 12 | 59 | 0.0 | 1.6 | 0.00 | 0.00 | 0.00 | 70 | 1017.3 |
| 20260507204506 | 12 | 59 | 0.0 | 4.8 | 0.00 | 0.00 | 0.00 | 67 | 1017.1 |
| 20260507204006 | 12 | 59 | 1.6 | 4.8 | 0.00 | 0.00 | 0.00 | 67 | 1017.0 |
| 20260507203506 | 12 | 59 | 1.6 | 4.8 | 0.00 | 0.00 | 0.00 | 66 | 1016.9 |
| 20260507203006 | 13 | 59 | 0.0 | 4.8 | 0.00 | 0.00 | 0.00 | 65 | 1016.9 |
| 20260507202506 | 13 | 59 | 3.2 | 8.0 | 0.00 | 0.00 | 0.00 | 64 | 1016.9 |
| 20260507202007 | 13 | 58 | 1.6 | 4.8 | 0.00 | 0.00 | 0.00 | 63 | 1016.9 |
| 20260507200006 | 13 | 58 | 1.6 | 4.8 | 0.00 | 0.00 | 0.00 | 59 | 1016.8 |
| 20260507195007 | 13 | 58 | 1.6 | 4.8 | 0.00 | 0.00 | 0.00 | 57 | 1016.7 |
| 20260507194507 | 13 | 58 | 1.6 | 3.2 | 0.00 | 0.00 | 0.00 | 57 | 1016.6 |
| 20260507193006 | 13 | 58 | 1.6 | 4.8 | 0.00 | 0.00 | 0.00 | 55 | 1016.4 |
| 20260507192505 | 13 | 58 | 1.6 | 4.8 | 0.00 | 0.00 | 0.00 | 55 | 1016.4 |
| 20260507192007 | 13 | 58 | 1.6 | 8.0 | 0.00 | 0.00 | 0.00 | 55 | 1016.3 |
| 20260507191506 | 13 | 58 | 3.2 | 4.8 | 0.00 | 0.00 | 0.00 | 55 | 1016.4 |
| 20260507191007 | 14 | 58 | 1.6 | 4.8 | 0.00 | 0.00 | 0.00 | 55 | 1016.4 |
| 20260507185506 | 14 | 58 | 1.6 | 4.8 | 0.00 | 0.00 | 0.00 | 55 | 1016.3 |
| 20260507185006 | 14 | 57 | 1.6 | 4.8 | 0.00 | 0.00 | 0.00 | 56 | 1016.4 |
| 20260507184506 | 15 | 57 | 0.0 | 4.8 | 0.00 | 0.00 | 0.00 | 55 | 1016.3 |
| 20260507182505 | 15 | 59 | 3.2 | 8.0 | 0.00 | 0.00 | 0.00 | 54 | 1016.3 |
| 20260507182009 | 15 | 58 | 0.0 | 4.8 | 0.00 | 0.00 | 0.00 | 54 | 1016.3 |
| 20260507181505 | 15 | 58 | 3.2 | 11.3 | 0.00 | 0.00 | 0.00 | 54 | 1016.3 |
| 20260507181006 | 15 | 29 | 1.6 | 9.7 | 0.00 | 0.00 | 0.00 | 55 | 1016.3 |
| 20260507174505 | 15 | 4 | 4.8 | 11.3 | 0.00 | 0.00 | 0.00 | 54 | 1016.3 |
| 20260507174006 | 15 | 27 | 4.8 | 11.3 | 0.00 | 0.00 | 0.00 | 53 | 1016.3 |
| 20260507173506 | 15 | 65 | 4.8 | 12.9 | 0.00 | 0.00 | 0.00 | 54 | 1016.3 |
| 20260507173006 | 15 | 10 | 3.2 | 9.7 | 0.00 | 0.00 | 0.00 | 57 | 1016.2 |
| 20260507172506 | 15 | 5 | 3.2 | 8.0 | 0.00 | 0.00 | 0.00 | 55 | 1016.3 |
| 20260507172006 | 15 | 0 | 8.0 | 12.9 | 0.00 | 0.00 | 0.00 | 53 | 1016.3 |
| 20260507171505 | 15 | 3 | 4.8 | 8.0 | 0.00 | 0.00 | 0.00 | 53 | 1016.3 |
| 20260507171006 | 15 | 0 | 1.6 | 12.9 | 0.00 | 0.00 | 0.00 | 54 | 1016.3 |
| 20260507165505 | 15 | 13 | 4.8 | 9.7 | 0.00 | 0.00 | 0.00 | 53 | 1016.3 |
| 20260507165005 | 15 | 17 | 6.4 | 14.5 | 0.00 | 0.00 | 0.00 | 54 | 1016.2 |
| 20260507164505 | 15 | 14 | 8.0 | 12.9 | 0.00 | 0.00 | 0.00 | 57 | 1016.2 |
| 20260507162505 | 15 | 333 | 1.6 | 4.8 | 0.00 | 0.00 | 0.00 | 54 | 1016.3 |
| 20260507162006 | 15 | 333 | 3.2 | 4.8 | 0.00 | 0.00 | 0.00 | 54 | 1016.2 |
| 20260507161505 | 15 | 61 | 3.2 | 12.9 | 0.00 | 0.00 | 0.00 | 53 | 1016.2 |
| 20260507161005 | 15 | 343 | 3.2 | 11.3 | 0.00 | 0.00 | 0.00 | 54 | 1016.2 |
| 20260507160005 | 15 | 3 | 6.4 | 11.3 | 0.00 | 0.00 | 0.00 | 54 | 1016.2 |
| 20260507153505 | 15 | 58 | 6.4 | 14.5 | 0.00 | 0.00 | 0.00 | 54 | 1016.0 |
| 20260507153006 | 15 | 350 | 4.8 | 9.7 | 0.00 | 0.00 | 0.00 | 53 | 1016.1 |
| 20260507152505 | 15 | 339 | 4.8 | 11.3 | 0.00 | 0.00 | 0.00 | 54 | 1016.0 |
| 20260507152005 | 15 | 343 | 4.8 | 12.9 | 0.00 | 0.00 | 0.00 | 56 | 1016.0 |
| 20260507151505 | 15 | 9 | 6.4 | 12.9 | 0.00 | 0.00 | 0.00 | 58 | 1016.1 |
| 20260507151006 | 15 | 315 | 3.2 | 16.1 | 0.00 | 0.00 | 0.00 | 57 | 1016.0 |
| 20260507150005 | 15 | 315 | 8.0 | 12.9 | 0.00 | 0.00 | 0.00 | 60 | 1016.0 |
| 20260507145505 | 15 | 355 | 8.0 | 12.9 | 0.00 | 0.00 | 0.00 | 60 | 1016.0 |
| 20260507144005 | 15 | 345 | 8.0 | 12.9 | 0.00 | 0.00 | 0.00 | 61 | 1016.0 |
| 20260507143505 | 15 | 312 | 4.8 | 11.3 | 0.00 | 0.00 | 0.00 | 62 | 1016.0 |
| 20260507143005 | 15 | 336 | 4.8 | 14.5 | 0.00 | 0.00 | 0.00 | 61 | 1015.9 |
| 20260507142505 | 15 | 342 | 4.8 | 11.3 | 0.00 | 0.00 | 0.00 | 62 | 1016.0 |
| 20260507142006 | 15 | 341 | 8.0 | 16.1 | 0.00 | 0.00 | 0.00 | 62 | 1016.1 |
| 20260507141505 | 15 | 321 | 9.7 | 19.3 | 0.00 | 0.00 | 0.00 | 62 | 1016.2 |
| 20260507141007 | 15 | 342 | 9.7 | 20.9 | 0.00 | 0.00 | 0.00 | 61 | 1016.2 |
| 20260507125005 | 14 | 337 | 11.3 | 19.3 | 0.00 | 0.00 | 0.00 | 62 | 1016.3 |
| 20260507124505 | 15 | 0 | 9.7 | 19.3 | 0.00 | 0.00 | 0.00 | 62 | 1016.2 |
| 20260507124005 | 15 | 345 | 11.3 | 19.3 | 0.00 | 0.00 | 0.00 | 61 | 1016.2 |
| 20260507123505 | 15 | 1 | 11.3 | 19.3 | 0.00 | 0.00 | 0.00 | 61 | 1016.2 |
| 20260507123005 | 15 | 345 | 11.3 | 19.3 | 0.00 | 0.00 | 0.00 | 60 | 1016.3 |
| 20260507122505 | 15 | 16 | 8.0 | 19.3 | 0.00 | 0.00 | 0.00 | 60 | 1016.2 |
| 20260507122005 | 15 | 329 | 9.7 | 16.1 | 0.00 | 0.00 | 0.00 | 62 | 1016.3 |
| 20260507120005 | 14 | 333 | 4.8 | 16.1 | 0.00 | 0.00 | 0.00 | 62 | 1016.3 |
| 20260507115504 | 14 | 327 | 9.7 | 16.1 | 0.00 | 0.00 | 0.00 | 61 | 1016.3 |
| 20260507115005 | 15 | 355 | 9.7 | 16.1 | 0.00 | 0.00 | 0.00 | 57 | 1016.3 |